This is the latest recevied weather packets stored in our database for station/object DJ2DS-13. If no packets are shown the sender has not sent any weather packets the latest 1 day(s).
| Time | Temp. | Humidity | Pressure | Rain* | Wind** | Luminosity | Snow |
|---|---|---|---|---|---|---|---|
| 1777992050 | 11.67° C | 81% | 1010.1 hPa | 0 mm | 1.34 m/s, 35° | 218 W/m² | - |
| 1777991751 | 11.67° C | 80% | 1010.2 hPa | 0 mm | 1.34 m/s, 24° | 208 W/m² | - |
| 1777991450 | 11.67° C | 80% | 1010.1 hPa | 0 mm | 0.89 m/s, 20° | 267 W/m² | - |
| 1777991150 | 11.67° C | 79% | 1010.1 hPa | 0 mm | 1.79 m/s, 0° | 223 W/m² | - |
| 1777990857 | 12.22° C | 79% | 1010.1 hPa | 0 mm | 0.89 m/s, 17° | 294 W/m² | - |
| 1777990555 | 12.22° C | 78% | 1010.1 hPa | 0 mm | 1.79 m/s, 34° | 262 W/m² | - |
| 1777990253 | 12.22° C | 78% | 1010.1 hPa | 0 mm | 1.34 m/s, 1° | 331 W/m² | - |
| 1777989951 | 12.22° C | 79% | 1010.1 hPa | 0 mm | 1.34 m/s, 0° | 427 W/m² | - |
| 1777989651 | 12.22° C | 78% | 1010.2 hPa | 0 mm | 0.89 m/s, 37° | 440 W/m² | - |
| 1777989349 | 12.22° C | 78% | 1010.2 hPa | 0 mm | 0.89 m/s, 42° | 422 W/m² | - |
| 1777989048 | 12.22° C | 79% | 1010.1 hPa | 0 mm | 1.34 m/s, 17° | 308 W/m² | - |
| 1777988745 | 12.22° C | 77% | 1010.1 hPa | 0 mm | 1.79 m/s, 0° | 345 W/m² | - |
| 1777988445 | 12.78° C | 76% | 1010.2 hPa | 0 mm | 1.79 m/s, 27° | 360 W/m² | - |
| 1777988146 | 12.78° C | 76% | 1010.1 hPa | 0 mm | 1.34 m/s, 14° | 505 W/m² | - |
| 1777987845 | 12.78° C | 76% | 1010.3 hPa | 0 mm | 0.89 m/s, 37° | 492 W/m² | - |
| 1777987542 | 12.78° C | 75% | 1010.4 hPa | 0 mm | 1.34 m/s, 21° | 413 W/m² | - |
| 1777987241 | 12.78° C | 75% | 1010.4 hPa | 0 mm | 0.89 m/s, 27° | 464 W/m² | - |
| 1777986941 | 12.78° C | 75% | 1010.4 hPa | 0 mm | 1.34 m/s, 20° | 396 W/m² | - |
| 1777986643 | 12.78° C | 76% | 1010.5 hPa | 0 mm | 0.89 m/s, 30° | 461 W/m² | - |
| 1777986342 | 12.22° C | 76% | 1010.4 hPa | 0 mm | 0.89 m/s, 30° | 441 W/m² | - |
| 1777986039 | 12.22° C | 75% | 1010.5 hPa | 0 mm | 0.89 m/s, 34° | 420 W/m² | - |
| 1777985739 | 12.22° C | 75% | 1010.5 hPa | 0 mm | 1.34 m/s, 23° | 438 W/m² | - |
| 1777985438 | 12.22° C | 74% | 1010.5 hPa | 0 mm | 1.34 m/s, 25° | 448 W/m² | - |
| 1777985139 | 12.22° C | 76% | 1010.6 hPa | 0 mm | 1.34 m/s, 51° | 478 W/m² | - |
| 1777984839 | 12.22° C | 73% | 1010.7 hPa | 0 mm | 0.89 m/s, 0° | 408 W/m² | - |
* Rain latest hour (hover to see other rain measurements)
** Current wind speed in m/s (hover to see current wind gust speed)